ARIANE 42P DEB, 44511

Orbit data source: Space-Track

ARIANE 42P DEB, 44511 is space debris in LEO originally from a launch on Mon, 10 Aug 1992 UTC launched from the French Guiana (FRGUI). Debris objects in space refer to the collection of defunct objects orbiting the Earth. Examples of debris include non-operational satellites, rocket bodies, and fragments generated from explosions, collisions, or faulty payload assembly.

Loading next visibility...
Identifier
44511, 1992-052J
Orbit
LEO
Country
Flag of FRFR
Related business
Manufacturer
ArianeGroup
Mission
Spacecraft
Bus & Motor
Unknown
Mass
Unknown
Launch date (UTC)
1992-08-10 (33 years ago)
Launch vehicle
Unknown
Launch site
French Guiana (FRGUI)
Object type
Payload
Rocket body
Debris
Shape & HBR
Unknown shape, 0.1 m
Radar Cross Section
Small (<0.1 m²)

Expand to show TLE details & history
Last TLE update: 13 hours ago

TLE from 13 hours ago
0 ARIANE 42P DEB
1 44511U 92052J   26036.81607573  .00002107  00000-0  87746-2 0  9991
2 44511  66.0659 193.4102 0069201   2.8060 357.3333 12.85214972303344
Epoch: 2026-02-05T19:35Z
TLE epoch observation values (Epoch: 2026-02-05T19:35:08.943Z)
Latitude
0.00006°
Longitude
123.66008°
Altitude
1,269.267 km
Speed
7.246 km/s
True Right ascension
12h 53m 38s
True Declination
0° 00' 00"
Sunlit
Object was in full shadow at epoch
Visualization orbit readout
Latitude
Unknown
Longitude
Unknown
Altitude
Unknown
Speed
Unknown
Apparent Right ascension
Unknown
Apparent Declination
Unknown
Sunlit
N/A
Visualization observer readout
Local Sidereal Time
10:27:45
Azimuth
Unknown
Elevation
Unknown
Doppler factor
Unknown
Orbital elements
Apogee altitude
1,372.396 km
Perigee altitude
1,265.864 km
Semi-major axis
7,697.267 km
Eccentricity
0.00692
Inclination
66.0659°
RAAN
193.4102°
Arg. of periapsis
2.806°
True anomaly
357.29608°
Mean anomaly
357.3333°
Eccentric anomaly
357.31472°
Mean motion
3.21394 °/min
Orbital period
112.01 mins
BSTAR
0.0087746
Loading maneuver chart data...
Computing Atmospheric mass density...
Loading historical data...
Loading historical data...
Loading historical data...
Loading historical data...
Loading historical data...
Loading historical data...
Loading historical data...

Documentation

Showing up to 5 results
|